Location: Poughquag
(41.6090°N, 73.6820°W)
Time: 12:36:58
(UTC-04:00)

Transit 2A - Pass Details

Date: 02 June 2020
Orbit: 592 x 967 km, 66.7° (Epoch: 06 July)

Event Time Altitude Azimuth Distance (km) Brightness Sun altitude
Rises 11:50:54 0° 151° (SSE) 2,995 9.4 66.7°
Reaches altitude 10° 11:55:03 10° 115° (ESE) 2,184 8.8 67.2°
Maximum altitude 11:56:16 11° 100° (E) 2,156 8.7 67.3°
Drops below altitude 10° 11:57:32 10° 86° (E) 2,248 8.7 67.5°
Sets 12:02:04 0° 51° (NE) 3,296 9.3 67.9°
